Year,Month,Day,Hour,Minute,Value (Times are PST for temperature in C)
2017,01,14,10,06,0.30
2017,01,14,10,07,0.30
2017,01,14,10,08,0.30
2017,01,14,10,09,0.30
2017,01,14,10,10,0.30
2017,01,14,10,11,0.30
2017,01,14,10,12,0.30
2017,01,14,10,13,0.30
2017,01,14,10,14,0.40
2017,01,14,10,15,0.40
2017,01,14,10,16,0.40
2017,01,14,10,17,0.40
2017,01,14,10,18,0.50
2017,01,14,10,19,0.50
2017,01,14,10,20,0.50
2017,01,14,10,21,0.60
2017,01,14,10,22,0.60
2017,01,14,10,23,0.60
2017,01,14,10,24,0.70
2017,01,14,10,25,0.70
2017,01,14,10,26,0.80
2017,01,14,10,27,0.80
2017,01,14,10,28,0.80
2017,01,14,10,29,0.80
2017,01,14,10,30,0.90
2017,01,14,10,31,0.90
2017,01,14,10,32,0.90
2017,01,14,10,33,0.90
2017,01,14,10,34,1.00
2017,01,14,10,35,1.00
2017,01,14,10,36,1.00
2017,01,14,10,37,1.00
2017,01,14,10,38,1.10
2017,01,14,10,39,1.10
2017,01,14,10,40,1.20
2017,01,14,10,41,1.20
2017,01,14,10,42,1.20
2017,01,14,10,43,1.30
2017,01,14,10,44,1.30
2017,01,14,10,45,1.30
2017,01,14,10,46,1.30
2017,01,14,10,47,1.40
2017,01,14,10,48,1.40
2017,01,14,10,49,1.50
2017,01,14,10,50,1.60
2017,01,14,10,51,1.60
2017,01,14,10,52,1.70
2017,01,14,10,53,1.70
2017,01,14,10,54,1.70
2017,01,14,10,55,1.80
2017,01,14,10,56,1.80
2017,01,14,10,57,1.80
2017,01,14,10,58,1.80
2017,01,14,10,59,1.80
2017,01,14,11,00,1.80
2017,01,14,11,01,1.80
2017,01,14,11,02,1.80
2017,01,14,11,03,1.80
2017,01,14,11,04,1.90
2017,01,14,11,05,1.90
2017,01,14,11,06,1.90
2017,01,14,11,07,2.00
2017,01,14,11,08,2.10
2017,01,14,11,09,2.10
2017,01,14,11,10,2.20
2017,01,14,11,11,2.20
2017,01,14,11,12,2.30
2017,01,14,11,13,2.30
2017,01,14,11,14,2.40
2017,01,14,11,15,2.50
2017,01,14,11,16,2.50
2017,01,14,11,17,2.60
2017,01,14,11,18,2.70
2017,01,14,11,19,2.80
2017,01,14,11,20,2.80
2017,01,14,11,21,2.80
2017,01,14,11,22,2.90
2017,01,14,11,23,2.90
2017,01,14,11,24,2.90
2017,01,14,11,25,2.90
2017,01,14,11,26,2.90
2017,01,14,11,27,2.90
2017,01,14,11,28,2.90
2017,01,14,11,29,2.90
2017,01,14,11,30,2.90
2017,01,14,11,31,3.00
2017,01,14,11,32,3.00
2017,01,14,11,33,3.10
2017,01,14,11,34,3.20
2017,01,14,11,35,3.20
2017,01,14,11,36,3.30
2017,01,14,11,37,3.30
2017,01,14,11,38,3.30
2017,01,14,11,39,3.30
2017,01,14,11,40,3.30
2017,01,14,11,41,3.40
2017,01,14,11,42,3.40
2017,01,14,11,43,3.40
2017,01,14,11,44,3.50
2017,01,14,11,45,3.50
2017,01,14,11,46,3.60
2017,01,14,11,47,3.60
2017,01,14,11,48,3.60
2017,01,14,11,49,3.70
2017,01,14,11,50,3.70
2017,01,14,11,51,3.80
2017,01,14,11,52,3.80
2017,01,14,11,53,3.90
2017,01,14,11,54,3.90
2017,01,14,11,55,4.00
2017,01,14,11,56,4.00
2017,01,14,11,57,4.00
2017,01,14,11,58,4.10
2017,01,14,11,59,4.10
2017,01,14,12,00,4.10
2017,01,14,12,01,4.10
2017,01,14,12,02,4.20
2017,01,14,12,03,4.20
2017,01,14,12,04,4.20
2017,01,14,12,05,4.30
2017,01,14,12,06,4.30
2017,01,14,12,07,4.40
2017,01,14,12,08,4.40
2017,01,14,12,09,4.50
2017,01,14,12,10,4.60
2017,01,14,12,11,4.70
2017,01,14,12,12,4.70
2017,01,14,12,13,4.70
2017,01,14,12,14,4.70
2017,01,14,12,15,4.70
2017,01,14,12,16,4.70
2017,01,14,12,17,4.70
2017,01,14,12,18,4.70
2017,01,14,12,19,4.70
2017,01,14,12,20,4.80
2017,01,14,12,21,4.80
2017,01,14,12,22,4.80
2017,01,14,12,23,4.80
2017,01,14,12,24,4.80
2017,01,14,12,25,4.90
2017,01,14,12,26,4.90
2017,01,14,12,27,4.90
2017,01,14,12,28,4.90
2017,01,14,12,29,4.90
2017,01,14,12,30,4.90
2017,01,14,12,31,4.90
2017,01,14,12,32,4.90
2017,01,14,12,33,5.00
2017,01,14,12,34,5.00
2017,01,14,12,35,4.90
2017,01,14,12,36,5.00
2017,01,14,12,37,5.00
2017,01,14,12,38,5.00
2017,01,14,12,39,5.00
2017,01,14,12,40,5.10
2017,01,14,12,41,5.10
2017,01,14,12,42,5.10
2017,01,14,12,43,5.10
2017,01,14,12,44,5.10
2017,01,14,12,45,5.10
2017,01,14,12,46,5.10
2017,01,14,12,47,5.10
2017,01,14,12,48,5.10
2017,01,14,12,49,5.10
2017,01,14,12,50,5.10
2017,01,14,12,51,5.10
2017,01,14,12,52,5.10
2017,01,14,12,53,5.10
2017,01,14,12,54,5.10
2017,01,14,12,55,5.10
2017,01,14,12,56,5.10
2017,01,14,12,57,5.10
2017,01,14,12,58,5.10
2017,01,14,12,59,5.10
2017,01,14,13,00,5.10
2017,01,14,13,01,5.20
2017,01,14,13,02,5.20
2017,01,14,13,03,5.20
2017,01,14,13,04,5.20
2017,01,14,13,05,5.20
2017,01,14,13,06,5.20
2017,01,14,13,07,5.20
2017,01,14,13,08,5.10
2017,01,14,13,09,5.10
2017,01,14,13,10,5.00
2017,01,14,13,11,5.00
2017,01,14,13,12,5.00
2017,01,14,13,13,4.90
2017,01,14,13,14,4.90
2017,01,14,13,15,4.90
2017,01,14,13,16,4.90
2017,01,14,13,17,4.90
2017,01,14,13,18,4.90
2017,01,14,13,19,4.90
2017,01,14,13,20,4.90
2017,01,14,13,21,5.00
2017,01,14,13,22,5.00
2017,01,14,13,23,5.00
2017,01,14,13,24,5.00
2017,01,14,13,25,5.10
2017,01,14,13,26,5.10
2017,01,14,13,27,5.10
2017,01,14,13,28,5.10
2017,01,14,13,29,5.10
2017,01,14,13,30,5.20
2017,01,14,13,31,5.20
2017,01,14,13,32,5.20
2017,01,14,13,33,5.20
2017,01,14,13,34,5.20
2017,01,14,13,35,5.20
2017,01,14,13,36,5.30
2017,01,14,13,37,5.30
2017,01,14,13,38,5.20
2017,01,14,13,39,5.20
2017,01,14,13,40,5.20
2017,01,14,13,41,5.10
2017,01,14,13,42,5.10
2017,01,14,13,43,5.10
2017,01,14,13,44,5.10
2017,01,14,13,45,5.00
2017,01,14,13,46,5.00
2017,01,14,13,47,5.00
2017,01,14,13,48,5.00
2017,01,14,13,49,5.00
2017,01,14,13,50,4.90
2017,01,14,13,51,4.90
2017,01,14,13,52,4.90
2017,01,14,13,53,4.90
2017,01,14,13,54,4.90
2017,01,14,13,55,4.90
2017,01,14,13,56,4.90
2017,01,14,13,57,4.90
2017,01,14,13,58,4.90
2017,01,14,13,59,4.90
2017,01,14,14,00,5.00
2017,01,14,14,01,5.00
2017,01,14,14,02,5.10
2017,01,14,14,03,5.10
2017,01,14,14,04,5.20
2017,01,14,14,05,5.20
2017,01,14,14,06,5.20
2017,01,14,14,07,5.30
2017,01,14,14,08,5.30
2017,01,14,14,09,5.30
2017,01,14,14,10,5.30
2017,01,14,14,11,5.30
2017,01,14,14,12,5.30
2017,01,14,14,13,5.30
2017,01,14,14,14,5.30
2017,01,14,14,15,5.30
2017,01,14,14,16,5.30
2017,01,14,14,17,5.30
2017,01,14,14,18,5.30
2017,01,14,14,19,5.20
2017,01,14,14,20,5.20
2017,01,14,14,21,5.20
2017,01,14,14,22,5.20
2017,01,14,14,23,5.20
2017,01,14,14,24,5.20
2017,01,14,14,25,5.20
2017,01,14,14,26,5.20
2017,01,14,14,27,5.20
2017,01,14,14,28,5.20
2017,01,14,14,29,5.20
2017,01,14,14,30,5.20
2017,01,14,14,31,5.20
2017,01,14,14,32,5.20
2017,01,14,14,33,5.20
2017,01,14,14,34,5.20
2017,01,14,14,35,5.20
2017,01,14,14,36,5.20
2017,01,14,14,37,5.20
2017,01,14,14,38,5.30
2017,01,14,14,39,5.30
2017,01,14,14,40,5.30
2017,01,14,14,41,5.30
2017,01,14,14,42,5.30
2017,01,14,14,43,5.30
2017,01,14,14,44,5.40
2017,01,14,14,45,5.40
2017,01,14,14,46,5.40
2017,01,14,14,47,5.40
2017,01,14,14,48,5.40
2017,01,14,14,49,5.40
2017,01,14,14,50,5.40
2017,01,14,14,51,5.40
2017,01,14,14,52,5.40
2017,01,14,14,53,5.50
2017,01,14,14,54,5.50
2017,01,14,14,55,5.50
2017,01,14,14,56,5.50
2017,01,14,14,57,5.50
2017,01,14,14,58,5.50
2017,01,14,14,59,5.50
2017,01,14,15,00,5.50
2017,01,14,15,01,5.50
2017,01,14,15,02,5.50
2017,01,14,15,03,5.50
2017,01,14,15,04,5.50
2017,01,14,15,05,5.50
2017,01,14,15,06,5.50
2017,01,14,15,07,5.50
2017,01,14,15,08,5.50
2017,01,14,15,09,5.50
2017,01,14,15,10,5.50
2017,01,14,15,11,5.50
2017,01,14,15,12,5.50
2017,01,14,15,13,5.40
2017,01,14,15,14,5.40
2017,01,14,15,15,5.40
2017,01,14,15,16,5.30
2017,01,14,15,17,5.30
2017,01,14,15,18,5.30
2017,01,14,15,19,5.30
2017,01,14,15,20,5.30
2017,01,14,15,21,5.30
2017,01,14,15,22,5.30
2017,01,14,15,23,5.20
2017,01,14,15,24,5.20
2017,01,14,15,25,5.20
2017,01,14,15,26,5.20
2017,01,14,15,27,5.20
2017,01,14,15,28,5.20
2017,01,14,15,29,5.20
2017,01,14,15,30,5.20
2017,01,14,15,31,5.20
2017,01,14,15,32,5.20
2017,01,14,15,33,5.10
2017,01,14,15,34,5.10
2017,01,14,15,35,5.10
2017,01,14,15,36,5.10
2017,01,14,15,37,5.10
2017,01,14,15,38,5.10
2017,01,14,15,39,5.20
2017,01,14,15,40,5.20
2017,01,14,15,41,5.20
2017,01,14,15,42,5.20
2017,01,14,15,43,5.10
2017,01,14,15,44,5.10
2017,01,14,15,45,5.10
2017,01,14,15,46,5.10
2017,01,14,15,47,5.10
2017,01,14,15,48,5.10
2017,01,14,15,49,5.10
2017,01,14,15,50,5.10
2017,01,14,15,51,5.10
2017,01,14,15,52,5.10
2017,01,14,15,53,5.10
2017,01,14,15,54,5.00
2017,01,14,15,55,5.10
2017,01,14,15,56,5.10
2017,01,14,15,57,5.10
2017,01,14,15,58,5.10
2017,01,14,15,59,5.10
2017,01,14,16,00,5.10
2017,01,14,16,01,5.10
2017,01,14,16,02,5.10
2017,01,14,16,03,5.10
2017,01,14,16,04,5.10
